Location: Beyries
(43.5718°N, 0.6369°W)
Time: 09:44:16
(UTC+00:00)

Daily predictions for brighter satellites

Satellite Brightness Start Highest point End
(mag) Time Altitude Azimuth Time Altitude Azimuth Time Altitude Azimuth
Iridium 4 Rocket 4.0 16:59:32 10° SSW 17:04:37 63° W 17:09:17 10° N
Cosmos 2233 Rocket 4.0 17:00:35 10° S 17:06:51 74° E 17:13:10 10° NNE
Cosmos 1725 Rocket 4.3 17:01:35 10° SSW 17:07:50 76° W 17:14:11 10° N
Cosmos 407 Rocket 3.9 17:03:01 10° S 17:07:54 43° ESE 17:12:45 10° NNE
CBERS-1 4.2 17:03:38 10° S 17:08:44 79° WSW 17:13:53 10° NNW
Cosmos 2061 Rocket 4.0 17:03:07 10° S 17:09:22 70° E 17:15:35 10° NNE
RESURS DK-1 3.2 17:06:41 10° N 17:10:11 28° NE 17:13:39 10° ESE
Cosmos 1782 Rocket 3.6 17:09:18 10° S 17:13:43 90° SE 17:18:11 10° N
ISS -3.8 17:10:29 10° WSW 17:13:50 90° NE 17:17:11 10° ENE
CZ-2D R/B 3.3 17:12:06 10° SE 17:15:02 36° ENE 17:17:59 10° N
Cosmos 1869 3.6 17:12:21 10° SSE 17:15:35 35° E 17:18:50 10° NNE
Cosmos 1300 Rocket 3.8 17:13:32 10° SSW 17:17:55 73° W 17:22:18 10° N
SJ-12 3.9 17:18:09 10° SSE 17:21:49 48° ENE 17:25:29 10° N
IGS 5A 3.8 17:18:45 10° S 17:22:42 68° WSW 17:26:43 10° NNW
COSMO-SKYMED 1 4.0 17:21:39 10° NE 17:24:14 16° E 17:26:48 10° SE
SL-12 R/B(2) 4.3 17:17:50 10° SSW 17:25:32 72° ESE 17:34:55 10° NE
AQUARIUS 4.4 17:21:25 10° SE 17:25:37 45° ENE 17:29:50 10° N
BREEZE-M DEB (TANK) 2.0 17:26:12 10° WSW 17:28:27 67° NNW 17:32:21 13° ENE
Cosmos 1400 Rocket 4.2 17:27:06 10° SE 17:29:38 17° E 17:31:12 14° ENE
Cosmos 540 Rocket 3.6 17:25:31 10° N 17:30:31 49° ENE 17:35:27 10° SE
Cosmos 1975 Rocket 3.0 17:29:43 10° N 17:34:05 89° E 17:38:28 10° S
Cosmos 1812 2.6 17:32:18 10° SSE 17:34:58 34° E 17:37:34 11° NNE
Cosmos 1763 Rocket 3.4 17:30:50 10° NNW 17:36:02 65° ENE 17:41:07 10° SSE
CORIOLIS 4.4 17:32:43 10° S 17:38:04 75° WSW 17:43:27 10° NNW
Cosmos 1140 Rocket 4.3 17:34:46 10° SW 17:39:47 50° WNW 17:44:49 10° N
Cosmos 2151 Rocket 4.3 17:36:15 10° SSE 17:40:10 31° E 17:44:08 10° NNE
SMAP 3.4 17:36:58 10° S 17:41:36 71° WSW 17:46:17 10° NNW
Cosmos 44 Rocket 3.2 17:37:56 10° SSW 17:42:39 69° ESE 17:47:06 12° NE
IRS-1C 4.2 17:37:49 10° SSE 17:43:08 87° WSW 17:48:30 10° NNW
Cosmos 2058 3.3 17:40:21 10° N 17:44:04 37° ENE 17:47:45 10° SE
Cosmos 1943 Rocket 2.1 17:41:58 10° SSW 17:47:35 85° ESE 17:53:12 10° NNE
Okean 1 Rocket 4.0 17:46:32 10° SE 17:50:07 25° E 17:51:43 20° ENE
CZ-2D R/B 3.8 17:46:48 10° SE 17:50:39 40° ENE 17:54:36 10° N
SKYMED 2 3.8 17:46:54 10° NNE 17:51:05 45° E 17:55:15 10° S
PSLV R/B 4.2 17:48:48 10° SE 17:52:18 29° ENE 17:55:48 10° N
Helios 1A Rocket 3.3 17:51:57 26° ENE 17:52:37 28° E 17:55:34 10° SSE
Landsat 7 4.0 17:49:26 10° S 17:54:03 73° WSW 17:58:44 10° NNW
Cosmos 2082 Rocket 2.4 17:49:08 10° NNW 17:54:35 49° ENE 17:59:59 10° SE
Cosmos 1072 Rocket 4.5 17:50:00 10° SSE 17:55:59 56° E 18:01:57 10° NNE
Cosmos 2278 Rocket 2.2 17:50:42 10° SSW 17:56:22 87° WNW 18:02:04 10° NNE
Aureole 3 Rocket 2.1 17:56:39 10° S 17:59:41 89° SE 18:02:50 10° N
BREEZE-M DEB (TANK) 2.8 17:57:35 10° WSW 18:00:07 74° NNW 18:03:16 23° ENE
BREEZE-M DEB (TANK) 3.4 17:58:53 10° W 18:01:15 45° NNW 18:04:09 20° NE
Cosmos 2369 Rocket 4.2 18:04:01 10° SE 18:04:20 11° SE 18:04:20 11° SE
SL-16 R/B 4.4 18:02:01 10° N 18:07:12 28° WNW 18:12:22 10° WSW
Cosmos 2251 Rocket 3.4 18:01:57 10° SSW 18:07:12 80° ESE 18:12:33 10° NNE
YAOGAN 1 2.7 18:05:59 10° SE 18:10:04 48° ENE 18:14:11 10° N
Cosmos 371 Rocket 3.5 18:06:20 10° S 18:10:52 45° ESE 18:12:52 29° NE
Cosmos 304 Rocket 3.9 18:07:25 10° S 18:11:56 47° ESE 18:13:56 29° NE
SJ 16-02 1.2 18:09:17 10° S 18:13:31 62° ESE 18:15:42 27° NE
SL-19 R/B 4.1 18:09:14 10° SSE 18:14:19 56° ENE 18:19:25 10° N
Cosmos 841 Rocket 3.9 18:10:46 10° N 18:15:41 39° ENE 18:17:16 32° E
CZ-4C R/B 4.5 18:16:53 10° NW 18:19:04 12° N 18:21:27 10° NNE
Nadezhda 4 Rocket 3.9 18:15:15 10° N 18:21:33 71° E 18:27:44 10° SSE
Resurs 1-3 3.5 18:17:47 10° SSE 18:22:01 61° ENE 18:26:17 10° N
Cosmos 1862 2.9 18:20:07 10° N 18:23:45 80° E 18:27:23 10° S
ATLAS 2AS CENTAUR R/B 3.7 18:19:07 10° NNW 18:24:40 26° NNE 18:25:35 25° NE
ARIANE 5 R/B 4.2 18:20:21 10° SSW 18:24:52 34° W 18:29:25 10° NNW
COSMOS 2406 3.4 18:21:51 10° NNW 18:27:22 49° ENE 18:29:07 37° ESE
Cosmos 1656 Rocket 3.9 18:22:23 10° S 18:27:35 44° ESE 18:28:33 40° E
Cosmos 468 Rocket 4.0 18:24:08 10° NNW 18:29:21 81° WSW 18:34:28 10° SSE
Okean 2 Rocket 3.0 18:30:30 10° S 18:34:53 87° W 18:37:52 20° N
Cosmos 2195 Rocket 4.5 18:29:10 10° N 18:35:25 61° E 18:41:41 10° SSE
Cosmos 1536 Rocket 3.6 18:31:29 10° N 18:35:56 78° W 18:40:18 10° S
MOS 1 Rocket 4.3 18:32:34 10° S 18:36:37 42° W 18:40:53 10° NNW
USA 215 4.1 18:31:12 10° SSE 18:37:28 49° SW 18:43:47 10° WNW
Cosmos 1190 Rocket 4.3 18:32:53 10° SSW 18:38:08 66° WNW 18:42:26 16° NNE
Cosmos 676 Rocket 3.9 18:35:43 10° SSW 18:41:01 82° ESE 18:43:16 36° NNE
Cosmos 1428 Rocket 4.4 18:34:54 10° N 18:41:13 83° E 18:47:31 10° S
Resurs 01 Rocket 4.0 18:46:22 12° N 18:46:22 12° N 18:46:43 10° N
Cosmos 489 Rocket 4.3 18:37:01 10° NNW 18:43:19 85° ENE 18:49:32 10° SSE
Cosmos 2344 4.0 18:35:36 10° NNW 18:43:23 54° NE 18:47:32 35° ESE
Meteor 2-3 Rocket 3.6 18:41:35 10° N 18:47:16 66° ENE 18:49:59 31° SSE
RESURS DK-1 4.5 18:44:10 10° NW 18:47:30 26° WSW 18:50:50 10° SSW
BlueWalker 3 3.8 18:46:54 10° SSW 18:48:23 21° SSW 18:48:23 21° SSW
ISS -1.7 18:48:05 10° WNW 18:50:07 22° NW 18:50:07 22° NW
Cosmos 1954 Rocket 4.4 18:45:53 10° SSW 18:51:06 62° WNW 18:54:18 23° N
COSMO-SKYMED 1 3.5 18:57:48 25° NNW 18:59:46 44° WNW 19:03:41 10° SW
USA 281 3.5 19:02:00 46° NE 19:02:00 46° NE 19:07:33 10° NNW
Cosmos 968 Rocket 4.5 18:57:46 10° S 19:00:38 33° S 19:00:38 33° S
Cosmos 1400 Rocket 4.4 19:01:24 10° SW 19:04:49 32° WNW 19:05:52 27° NW
Cosmos 1634 Rocket 4.0 19:02:22 10° S 19:07:38 60° SE 19:07:38 60° SE
DELTA 2 R/B (1) 4.4 19:04:01 10° SW 19:08:21 37° S 19:08:21 37° S
BREEZE-M DEB (TANK) 4.3 19:21:48 10° WNW 19:37:09 69° SW 19:37:20 69° SSW
Cosmos 2082 Rocket 4.2 19:33:48 10° NW 19:38:18 25° WSW 19:42:48 10° SSW
Cosmos 1092 Rocket 4.3 19:32:13 10° NNW 19:38:22 61° W 19:39:48 48° SW
Cosmos 2369 Rocket 4.1 19:44:39 10° SSW 19:46:11 19° SSW 19:46:11 19° SSW
SJ 16-02 4.1 19:49:41 10° W 19:52:05 14° NW 19:52:18 14° NW
ATLAS 2AS CENTAUR R/B 4.0 20:09:38 10° NW 20:13:01 32° NW 20:13:01 32° NW
